www.pogodaiklimat.ru

Погода и климат >> Архив погоды >> Казахстан >> Шымкент


АРХИВ ПОГОДЫ в Шымкенте

Время (UTC), дата Ветер
(напр.,м/с)
 
Видим.   Явления Облачность Т
(С)
Тd
(С)
f
(%)
Тe
(С)
Тes
(С)
Комфортность P
(гПа)
Po
(гПа)
Тmin
(С)
Tmax
(С)
R
(мм)
R24
(мм)
S
(см)
09 13.09 З 1 50 км ясно +25.2 +1.3 21 +24 +36 комфорт 1013.4 946.4
12 13.09 В 2 50 км ясно +23.3 -1.3 19 +22 +24 комфорт 1014.1 946.6
15 13.09 Ю 2 н/о ясно +17.5 -2.8 25 +18 +18 холодно 1016.0 947.1 +26.4
18 13.09 СЗ 1 н/о ясно +13.3 -7.9 22 +14 +14 прохладно 1017.4 947.4 +26.4
21 13.09 Ю 1 н/о ясно +11.2 -3.2 36 +12 +12 прохладно 1017.1 946.6
00 14.09 З 1 н/о ясно +9.9 -1.3 46 +10 +10 прохладно 1016.9 946.1
03 14.09 СВ 1 50 км ясно +16.6 +0.1 33 +18 +20 прохладно 1015.8 946.7
06 14.09 СВ 1 50 км ясно +22.6 -0.5 21 +22 +35 комфорт 1014.7 947.0 +9.7
09 14.09 СВ 1 50 км ясно +27.0 -1.5 15 +25 +37 комфорт 1012.9 946.3
12 14.09 В 1 50 км ясно +25.7 -2.1 16 +24 +26 комфорт 1013.6 946.7
15 14.09 В 1 н/о ясно +17.8 -4.3 22 +19 +19 прохладно 1017.1 948.2 +27.9
18 14.09 В 2 н/о ясно +15.5 -3.1 28 +16 +16 по сезону 1017.2 947.8 +27.9
21 14.09 В 2 н/о ясно +14.2 -1.3 34 +14 +14 по сезону 1016.8 947.1
00 15.09 штиль 0 н/о ясно +11.9 -0.9 41 +12 +12 прохладно 1017.7 947.4
03 15.09 ЮВ 2 50 км ясно +19.1 +0.4 28 +20 +22 по сезону 1016.3 947.8
06 15.09 ЮВ 1 50 км ясно +25.1 -1.0 18 +23 +36 комфорт 1015.2 948.0 +10.9
09 15.09 штиль 0 50 км ясно +28.1 -2.3 14 +25 +40 комфорт 1013.4 947.0
12 15.09 штиль 0 50 км ясно +28.0 -3.5 12 +25 +27 комфорт 1012.9 946.5
15 15.09 СЗ 1 н/о ясно +19.8 -0.8 25 +21 +21 комфорт 1015.7 947.3 +28.7
18 15.09 В 3 н/о ясно +18.7 -0.7 27 +19 +19 тепло 1015.0 946.5 +28.7
21 15.09 В 1 н/о ясно +14.1 +0.3 39 +15 +15 по сезону 1015.4 945.8
00 16.09 В 2 н/о ясно +14.8 -0.3 36 +15 +15 по сезону 1015.4 946.0
03 16.09 В 2 50 км ясно +19.9 +1.9 30 +21 +23 комфорт 1014.6 946.4
06 16.09 СВ 1 50 км ясно +29.4 -0.2 15 +27 +40 жарко 1012.5 946.4 +13.1
09 16.09 СВ 1 50 км ясно +31.2 -1.2 12 +28 +40 жарко 1010.8 945.3
12 16.09 В 1 50 км ясно +29.7 -2.1 13 +27 +28 жарко 1010.7 944.8
15 16.09 ЮВ 1 н/о ясно +21.6 -4.0 18 +21 +21 комфорт 1013.0 945.2 +32.3
18 16.09 ЮЗ 1 н/о 4/0
[Ci ing]
+17.9 -3.5 23 +19 +19 тепло 1013.2 944.5 +32.3
21 16.09 Ю 1 н/о ясно +17.0 -2.9 25 +18 +18 тепло 1012.1 943.3
00 17.09 З 2 н/о ясно +15.7 +0.3 35 +16 +16 тепло 1012.0 943.0
03 17.09 ЮЗ 1 50 км 3/0
[Ci ing]
+20.6 +2.5 30 +22 +24 комфорт 1011.3 943.5
06 17.09 В 1 50 км 8/0
[Ac trans Ci ing]
+28.4 -0.1 16 +26 +35 жарко 1010.0 943.9 +13.2
09 17.09 З 1 50 км 4/0
[Ac trans Ci fib]
+30.2 -3.5 11 +27 +37 жарко 1008.8 943.1
12 17.09 штиль 0 50 км 3/0
[Ac trans]
+30.1 -2.8 12 +27 +29 жарко 1008.5 942.8
15 17.09 В 2 н/о ясно +22.7 -3.1 18 +21 +21 комфорт 1010.8 943.4 +31.7
18 17.09 В 2 н/о ясно +19.4 -3.7 21 +20 +20 тепло 1011.5 943.3 +31.7
21 17.09 В 2 н/о ясно +17.1 -1.5 28 +18 +18 тепло 1011.6 942.9
00 18.09 В 1 н/о ясно +14.4 -0.2 37 +15 +15 по сезону 1012.4 943.0
03 18.09 В 1 50 км ясно +21.1 +1.7 28 +21 +24 комфорт 1012.0 944.3
06 18.09 Ю 1 50 км ясно +28.2 -1.4 14 +25 +38 комфорт 1010.9 944.7 +13.6
09 18.09 ЮЗ 1 50 км 4/0
[Ci fib]
+31.1 -2.5 11 +28 +38 жарко 1009.3 943.8
12 18.09 ЮЗ 1 50 км 4/0
[Ac und Ci fib]
+30.7 -2.5 12 +27 +29 жарко 1008.9 943.4
15 18.09 З 1 н/о 3/0
[Ci fib]
+20.9 +1.7 28 +22 +22 комфорт 1011.6 943.8 +31.8
18 18.09 З 1 н/о ясно +18.2 +0.2 30 +19 +19 тепло 1012.0 943.5 +31.8
21 18.09 СЗ 2 н/о 3/0
[Ac trans]
+19.0 -1.2 25 +20 +20 тепло 1011.1 942.9
00 19.09 З 1 н/о 4/0
[Ac trans Ci fib]
+16.1 -1.1 31 +17 +17 тепло 1012.0 943.0
03 19.09 ЮВ 2 50 км 10/4 600 м
[Sc Ac trans]
+21.3 +0.7 25 +21 +21 комфорт 1012.0 944.2
06 19.09 ЮВ 1 50 км 9/8 600 м
[Sc Ac trans]
+28.3 +0.4 16 +26 +28 жарко 1011.1 944.9 +15.6
09 19.09 З 2 50 км 8/4 600 м
[Sc Ci ing]
+30.3 +0.4 15 +28 +33 жарко 1008.6 943.0
12 19.09 З 3 50 км 9/3 600 м
[Sc Ac trans Ci ing]
+29.2 +2.1 18 +27 +28 жарко 1008.3 942.5
15 19.09 ЮЗ 1 н/о 8/8 600 м
[Sc]
+24.3 +4.0 27 +24 +24 комфорт 1010.0 943.0 +30.8
18 19.09 Ю 2 н/о 8/6 600 м
[Sc Ac trans]
+24.7 +0.6 21 +23 +23 комфорт 1008.8 942.0 +30.8
21 19.09 ЮЗ 2 н/о 10/10 600 м
[Cb cap]
+19.2 +5.8 41 +20 +20 тепло 1009.5 941.5
00 20.09 штиль 0 н/о 10/10 600 м
[Cb cap]
+19.3 +2.8 33 +19 +19 тепло 1009.8 941.8
03 20.09 ЮЗ 1 4000 м слабый ливневой дождь 10/10 600 м
[Cb cap]
+19.4 +6.3 42 +21 +21 комфорт 1012.0 943.9

 

Местоположение метеостанции Шымкент (Южно-Казахстанская область, Казахстан): широта 42.32 долгота 69.70 высота над уровнем моря 604 м.

В архиве по умолчанию представлена погода в Шымкенте за последнюю неделю. Архивные данные за месяц целиком и за предыдущие месяцы, начиная с января 2011 года, Вы можете получить, выбрав интересующий диапазон дат из раскрывающегося списка и нажав кнопку "Ввод!".


*Определитесь, кто Вы:
робот инопланетянин человек

Внимание! Время в таблицах - всемирное. Для получения местного времени необходимо прибавить поправку, которая в Шымкенте равна 6 ч.

Смотрите также архив погоды в соседних городах и на ближайших метеорологических станциях:

Погода в Нурсате (Южно-Казахстанская область, Казахстан) (8 км)
Погода в Тасарыке (Южно-Казахстанская область, Казахстан) (38 км)
Погода в Ауле Турара Рыскулова (Южно-Казахстанская область, Казахстан) (52 км)
Погода в Шуылдаке (Южно-Казахстанская область, Казахстан) (60 км)
Погода в Казыгурте (Южно-Казахстанская область, Казахстан) (67 км)
Погода в Красноярской (Южно-Казахстанская область, Казахстан) (69 км)
Погода в Пскеме (Ташкентская область, Узбекистан) (72 км)
Погода в Арысе (Южно-Казахстанская область, Казахстан) (75 км)
Погода в Бугуни (Южно-Казахстанская область, Казахстан) (75 км)
Погода в Шаяне (Южно-Казахстанская область, Казахстан) (83 км)

Пояснения к столбцам:

Ветер - указаны скорость ветра в м/с - средняя за 10 мин, порывы в срок и между сроками (в фигурных скобках) и направление, откуда дует ветер: С - северный, СВ - северо-восточный, В - восточный, ЮВ - юго-восточный, Ю - южный, ЮЗ - юго-западный, З - западный, СЗ - северо-западный.
Видимость - горизонтальная дальность видимости в метрах или километрах. При видимости от 1 до 10 км при отсутствии осадков обычно наблюдается дымка, при ухудшении видимости до 1 км и менее - туман. В сухую погоду видимость может ухудшаться дымом, пылью или мглою.
Явления - указаны атмосферные явления, наблюдавшиеся в срок или в последний час перед сроком; фигурными скобками обозначены явления, наблюдавшиеся между сроками (за 1-3 часа до срока); квадратными скобками обозначены град или гололедные отложения с указанием их диаметра в мм.
Облачность - указаны через наклонную черту общая и нижняя облачность в баллах и высота нижней границы облаков в метрах; квадратными скобками обозначены формы облаков: Ci - перистые, Cs - перисто-слоистые, Cc - перисто-кучевые, Ac - высококучевые, As - высокослоистые, Sc - слоисто-кучевые, Ns - слоисто-дождевые, Cu - кучевые, Cb - кучево-дождевые. Подробнее классификацию облаков см. в Атласе облаков (PDF).
T - Температура воздуха - температура, измеренная на высоте 2 м над землей.
Td - Температура точки росы - температура, при понижении до которой содержащийся в воздухе водяной пар достигнет насыщения.
f - Относительная влажность воздуха - влажноcть воздуха, измеренная на высоте 2 м над землей.
Te - Эффективная температура - температура, которую ощущает одетый по сезону человек в тени. Характеристика душности погоды. При расчете учитывается влияние влажности воздуха и скорости ветра на теплоощущения человека.
Tes - Эффективная температура на солнце - температура, которую ощущает человек, с поправкой на солнечный нагрев. Характеристика знойности погоды. Зависит от высоты солнца над горизонтом, облачности и скорости ветра. Ночью, в пасмурную погоду, а также при ветре 12 м/с и более поправка равна нулю.
P - Атмосферное давление - приведенное к уровню моря атмосферное давление.
Po - Атмосферное давление - измеренное на уровне метеостанции атмосферное давление.
Tmin - Минимальная температура - минимум температуры воздуха на высоте 2 м над землей.
Tmax - Максимальная температура - максимум температуры воздуха на высоте 2 м над землей.
R - Количество осадков - Количество выпавших осадков за период времени, мм. При наведении курсора мыши на число - период времени, за который выпало указанное количество осадков.
R24 - Количество осадков - Количество выпавших осадков за 24 часа, мм.
S - Снежный покров - Высота снежного покрова, см. При наведении курсора мыши на число - состояние снежного покрова и степень покрытия местности в баллах.